Погода в Салавате

Россия / Республика Башкортостан     53°21′41″N   55°55′28″E
темп.,
°C
ветер,
м/с
пор.,
м/с
влажн.,
%
обл.,
%
осадки,
мм/ч
давл.,
гПа
погр.,
м
19 апреля, пн
пн1923:00+7в713725 0.0 1020655
02:00+3в614589 0.0 1022691
05:00+2вюв61357100 0.0 1024693
08:00+1вюв61153100 0.0 1025760
11:00+2вюв6944100 0.0 1027948
14:00+7в673335 0.0 10261492
17:00+7в6632100 0.0 10261616
20:00+4в5936100 0.0 1028760
20 апреля, вт
вт2023:00+1в5113997 0.0 1030762
02:00−1вюв49430 0.0 1032446
05:00−2в48440 0.0 1032466
08:000вюв59370 0.0 1033848
11:00+4вюв57270 0.0 10331272
14:00+8юв45240 0.0 10321623
17:00+9вюв34240 0.0 10311649
20:00+5вюв34400 0.0 103155
21 апреля, ср
ср2123:00+2юв37510 0.0 1032137
02:00+1ююв22540 0.0 103214
05:000юв2255100 0.0 103312
08:00+3юв3745100 0.0 1033350
11:00+7ююв5733100 0.0 1032935
14:00+11ююв6729100 0.0 10301250
17:00+11ю6830100 0.0 10301367
20:00+9ююв41043100 0.0 1030396
22 апреля, чт
чт2223:00+6ююв31153100 0.0 1031384
02:00+6ююв51248100 0.0 1031503
05:00+4ю41264100 0.3 1032656
08:00+4ююв51266100 0.1 1032609
11:00+6ююв61258100 0.1 1032798
14:00+10ю61139100 0.0 10321433
17:00+9юз61050100 0.0 10321365
20:00+7ююз2363100 0.0 103267
23 апреля, пт
пт2323:00+6св1167100 0.1 103110
02:00+5ююв3888100 1.3 1031698
05:00+6ююв3871100 0.0 1030362
08:00+7юв3777100 0.1 1029291
11:00+10юв695785 0.2 10281156
14:00+15ююв6938100 0.0 10251952
17:00+15ю6938100 0.0 10242070
20:00+10ююз6970100 0.3 1026801